Regional Weather Roundup
Issued by NWS

Home | Current Version | Previous Version | Graphics & Text | Print | Product List | Glossary On
Versions: 1 2 3 4 5 6 7 8 9 10 11 12 13 14 15 16 17 18 19 20 21 22 23 24 25 26 27 28 29 30 31 32 33 34 35 36 37 38 39 40 41 42 43 44 45 46 47 48 49 50
203
ASUS43 KBIS 221810
RWRND
NORTH DAKOTA REGIONAL WEATHER ROUNDUP
NATIONAL WEATHER SERVICE EASTERN NORTH DAKOTA/GRAND FORKS ND
100 PM CDT THU JUN 22 2017

  NOTE: "FAIR" INDICATES FEW OR NO CLOUDS BELOW 12,000 FEET WITH NO
  SIGNIFICANT WEATHER AND/OR OBSTRUCTIONS TO VISIBILITY.

NDZ001>003-009>011-017-221900-
...NORTHWEST NORTH DAKOTA...

CITY           SKY/WX    TMP DP  RH WIND       PRES   REMARKS
WILLISTON      FAIR      72  36  26 W28G37    29.85F
6HR MIN TEMP:  53; 6HR MAX TEMP:  72;

MINOT          FAIR      72  32  23 W31G38    29.77S
MINOT AFB      FAIR      69  36  28 W30G40    29.74F
6HR MIN TEMP:  57; 6HR MAX TEMP:  70;

$$

NDZ018>021-031>035-040>046-221900-
...SOUTHWEST NORTH DAKOTA...

CITY           SKY/WX    TMP DP  RH WIND       PRES   REMARKS
BISMARCK       FAIR      75  41  29 NW14G26   29.83F
DICKINSON      FAIR      71  27  19 NW23G32   29.87F
GARRISON         N/A     68  34  28 NW26G41   29.82R
HETTINGER      FAIR      73  35  25 NW17G26   29.91F
$$

NDZ004>008-012>016-024-026-027-054-221900-
...NORTHEAST NORTH DAKOTA...

CITY           SKY/WX    TMP DP  RH WIND       PRES   REMARKS
GRAND FORKS    FAIR      76  47  35 W17G31    29.67F
GRAND FORKS AF FAIR      73  46  38 NW15G26   29.69S
DEVILS LAKE    FAIR      69  41  36 W23G30    29.73S
$$

NDZ022-023-025-028>030-036>039-047>053-221900-
...SOUTHEAST NORTH DAKOTA...

CITY           SKY/WX    TMP DP  RH WIND       PRES   REMARKS
JAMESTOWN      FAIR      74  44  34 NW24G32   29.76S
FARGO          FAIR      77  47  34 W15       29.72F
WAHPETON       FAIR      73  45  35 NW8       29.75S
$$




USA.gov is the U.S. government's official web portal to all federal, state and local government web resources and services.